RH
52 40 35 33 35 31 37 48 32 32 33 35 35 46 51 48 42 38 32 25 26 38 54 49 35 28 35 28 32 34 26 28 29 34 40 40 32 29 21 19 13 10 6 3 2 2 2
88 60 58 41 45 36 38 38 34 35 31 26 27 31 33 53 68 58 50 47 38 27 25 28 29 29 28 33 32 32 40 38 33 32 31 38 32 32 25 20 16 12 9 4 3 2 2
100 90 74 58 52 44 45 43 42 40 38 32 28 30 30 32 38 68 63 67 50 44 34 30 28 32 38 38 42 38 40 44 42 34 37 35 34 37 22 21 20 15 9 5 4 3 2
100 72 99 88 66 59 53 51 52 44 45 36 29 27 28 31 30 35 68 75 58 52 55 38 40 36 39 48 47 41 48 45 46 39 39 38 35 46 29 25 23 20 13 8 6 3 3
88 88 95 100 84 77 87 62 71 58 53 52 44 40 34 31 34 35 34 40 38 39 44 43 44 42 52 55 61 56 52 48 55 46 45 33 33 46 42 33 28 23 17 11 8 5 4
70 73 71 100 100 94 100 98 88 69 77 72 67 51 44 45 41 48 45 45 42 39 41 46 54 52 60 65 72 78 73 51 48 50 52 42 36 43 44 34 26 22 19 14 11 6 4
100 99 79 86 100 100 100 100 100 82 67 66 61 50 51 46 47 45 45 53 53 46 42 44 60 82 78 75 80 93 82 68 65 51 45 37 40 47 48 33 27 28 23 18 15 10 6
82 94 98 100 100 84 93 96 99 79 60 67 81 65 61 52 49 56 67 70 66 53 49 52 71 79 91 87 80 76 82 80 65 64 54 37 36 46 56 36 26 30 26 23 16 12 7
59 70 74 88 100 99 100 99 91 96 83 87 78 86 86 86 72 73 91 92 74 61 58 59 77 81 91 74 74 72 77 83 83 66 63 50 37 32 69 41 34 28 31 27 20 15 9
71 80 100 100 100 93 100 100 100 97 93 100 99 99 97 87 95 100 92 97 89 64 59 59 89 88 79 76 75 75 84 79 88 79 76 67 50 37 49 54 39 36 33 29 26 18 16
81 81 84 88 100 100 100 100 96 92 100 99 100 99 94 100 100 100 100 97 92 89 77 78 73 75 55 59 66 59 68 78 84 71 69 72 60 49 39 44 51 39 31 35 30 25 22
89 88 99 100 100 100 100 100 100 92 89 100 100 100 97 97 98 100 100 98 93 91 92 85 74 65 61 57 63 65 55 62 79 89 73 76 71 53 50 43 49 53 41 36 37 29 26
100 100 100 100 100 94 94 100 100 99 93 97 95 95 100 94 92 98 96 94 97 98 90 96 93 93 82 71 66 71 61 54 64 90 98 86 86 76 69 57 46 55 49 58 42 33 29
99 100 100 100 100 100 100 100 99 100 99 97 100 96 100 100 99 100 100 97 96 99 96 92 99 98 91 77 73 72 74 61 61 61 87 98 93 99 86 73 60 53 52 45 41 34 30
100 100 100 100 100 100 100 100 100 100 100 100 100 100 94 92 83 86 98 100 100 98 84 76 78 68 82 88 87 77 73 68 74 71 70 81 100 93 88 78 66 58 50 54 45 44 38
72 68 78 94 100 100 100 100 100 100 100 100 100 100 100 100 100 93 97 99 96 86 85 87 90 84 84 86 95 89 78 79 86 78 74 79 99 100 96 85 82 76 65 57 59 50 40
96 87 82 84 97 96 100 100 100 100 100 100 100 100 100 97 91 97 100 99 95 98 100 98 99 95 90 92 99 99 98 99 100 97 85 74 94 96 99 99 83 81 83 70 70 63 60
73 88 89 88 96 79 99 96 100 100 100 100 100 100 100 100 100 100 100 100 100 100 100 100 100 100 100 98 95 91 100 99 96 95 91 85 85 94 95 100 100 95 81 70 69 91 82
63 66 72 85 87 84 91 95 98 99 98 100 100 99 98 100 100 100 100 100 100 100 100 100 100 100 100 100 84 83 99 90 83 99 90 85 86 88 85 72 100 100 100 82 83 62 94
56 62 61 60 65 76 77 79 82 93 100 100 97 100 96 83 84 84 98 88 97 97 95 99 100 91 77 80 77 89 100 95 92 96 96 89 74 49 53 50 59 88 100 100 90 83 75
69 85 71 58 52 59 64 64 64 88 82 89 100 100 100 100 95 83 79 95 95 81 77 78 74 79 75 77 66 72 73 64 76 83 86 74 64 53 51 44 41 48 60 96 100 98 92
74 57 56 50 50 51 58 60 58 59 66 85 79 100 100 100 100 83 100 100 100 100 100 100 92 89 79 70 66 61 58 67 68 74 78 74 68 55 62 48 44 61 42 52 58 81 100
66 60 54 46 54 53 50 53 56 60 66 59 70 84 94 93 100 100 99 94 90 99 98 93 83 81 74 84 76 76 74 70 66 70 85 78 66 60 63 59 51 72 71 61 51 56 77
61 53 37 40 53 56 59 56 64 69 78 84 78 68 73 90 94 97 100 100 100 100 100 100 96 84 85 81 74 76 78 85 76 72 84 80 69 56 52 55 56 62 59 67 73 54 51
44 36 35 41 51 52 51 61 70 74 83 91 93 96 89 93 99 98 99 100 100 100 98 83 91 93 84 85 94 72 69 66 68 81 89 92 83 74 56 59 53 59 55 52 69 77 64
37 31 35 39 50 64 64 67 74 79 91 91 99 98 83 80 94 94 98 96 91 80 73 77 83 89 90 84 73 71 64 70 73 59 76 83 79 76 69 62 57 74 80 67 52 66 73
30 33 38 41 46 54 64 76 87 99 100 95 87 82 87 83 95 100 100 100 100 100 100 100 100 100 91 90 73 68 74 81 67 76 75 70 69 75 85 79 78 96 100 79 71 57 65
34 36 43 54 58 64 68 73 72 79 91 91 97 83 76 76 85 99 100 99 93 96 96 98 100 100 100 91 81 85 78 82 71 64 61 61 63 71 86 98 88 100 95 98 76 66 62
35 41 48 52 50 47 45 48 52 57 73 67 77 84 80 90 95 97 99 98 92 83 88 90 73 100 100 100 100 94 75 58 66 57 94 83 100 98 81 87 90 87 89 55 56 70 64
Wind_Speed
22 18 17 14 17 17 17 18 20 21 22 20 21 20 20 20 21 21 22 22 24 24 25 26 28 27 27 32 34 34 35 43 48 51 54 59 59 62 64 67 69 69 65 50 38 27 31
20 25 23 20 22 18 19 21 23 25 24 21 22 21 22 22 26 28 28 29 29 26 27 28 30 31 32 37 37 40 43 46 49 55 57 60 59 62 63 66 69 69 68 55 41 27 25
24 27 29 28 25 25 25 24 24 28 27 24 21 21 21 24 28 28 29 34 33 35 34 32 33 32 36 41 44 44 48 47 50 56 60 61 62 63 59 66 68 72 63 55 44 31 22
31 30 33 34 31 31 29 28 28 29 29 28 26 27 29 30 28 29 32 33 36 39 38 38 36 34 37 45 44 43 49 50 51 55 60 59 59 64 67 69 70 72 70 64 54 38 26
37 36 35 37 36 35 34 33 33 35 32 31 33 36 34 35 35 35 34 35 37 39 43 40 39 37 40 44 44 46 50 52 49 52 61 60 57 59 64 68 68 70 69 67 61 45 32
43 42 39 39 39 39 37 37 38 37 36 39 41 41 42 41 41 42 42 41 40 42 41 42 42 40 40 44 47 48 49 50 52 54 58 59 58 57 59 62 62 65 67 70 66 53 37
41 40 43 40 43 43 43 42 41 41 43 45 46 48 48 47 45 46 49 47 44 47 45 42 42 43 41 47 48 49 48 49 51 53 56 55 57 56 58 59 62 67 68 67 68 61 44
53 49 50 49 48 49 50 51 50 50 51 51 53 51 50 49 51 51 51 53 52 50 48 46 46 44 45 47 47 50 50 51 51 54 55 52 54 56 57 59 57 62 66 68 65 62 51
54 57 57 56 52 52 54 54 56 56 57 56 54 53 52 54 55 56 56 56 55 55 50 45 49 48 49 51 51 52 51 51 54 56 53 53 54 54 55 60 62 60 64 65 65 66 60
56 55 54 55 57 55 56 57 59 60 59 60 55 55 56 57 57 59 57 57 58 57 54 51 50 51 52 52 53 52 51 52 53 55 51 53 55 52 53 55 58 59 59 63 65 65 65
66 66 62 59 58 58 59 61 63 61 59 57 59 58 57 59 60 60 61 59 59 59 58 56 53 54 53 52 51 51 51 51 52 53 50 52 53 53 50 54 57 58 56 60 62 64 66
65 63 62 63 63 63 65 65 64 66 64 63 62 62 62 61 60 59 59 60 62 61 58 56 57 55 56 54 51 50 51 52 54 54 54 52 48 50 51 50 54 55 56 55 57 59 59
59 61 63 65 67 68 67 66 65 65 65 64 64 64 62 64 64 62 62 61 60 60 59 58 60 58 58 59 56 55 53 53 52 54 53 49 45 47 49 50 52 51 53 53 51 49 52
64 63 66 66 66 66 66 67 66 64 65 65 66 65 65 65 65 63 61 61 59 61 61 61 60 61 62 60 61 56 55 56 52 53 50 49 44 43 47 46 46 47 46 47 46 45 45
68 67 69 69 68 69 67 65 67 69 68 67 67 69 69 67 68 66 65 64 61 63 65 65 65 65 65 65 63 59 60 60 54 54 54 51 50 48 46 46 46 44 45 43 45 44 43
59 66 68 71 69 72 73 72 72 72 73 73 72 70 69 68 68 67 66 69 69 69 66 64 65 66 66 67 66 65 62 60 56 55 54 53 52 49 48 47 42 41 42 42 38 40 39
48 50 58 61 60 58 58 65 71 76 77 76 76 77 76 74 72 69 68 70 71 69 68 68 67 68 68 68 68 64 60 60 58 55 54 52 50 49 46 45 45 38 36 38 36 34 37
56 54 58 57 63 66 61 61 60 61 64 66 66 66 68 69 67 66 69 71 70 70 72 70 69 69 67 68 65 62 61 62 62 56 55 54 51 49 49 45 44 42 35 34 32 30 32
65 65 64 64 63 66 66 68 67 61 60 59 61 65 68 70 70 71 70 70 70 69 70 70 68 68 69 69 66 65 64 64 60 59 53 53 54 52 52 48 45 44 40 35 33 30 28
68 69 74 74 74 72 69 70 71 72 69 67 65 61 62 62 64 62 65 63 64 66 67 68 67 68 66 62 64 59 61 60 55 55 52 52 52 48 41 43 42 43 43 41 38 34 33
76 77 76 75 81 81 78 76 74 75 77 74 68 68 66 67 66 67 67 65 63 64 67 68 66 65 67 63 62 59 59 58 54 56 53 49 45 48 46 45 40 39 41 43 40 39 37
83 83 80 76 77 82 82 83 83 79 79 77 81 75 74 73 71 70 69 67 68 68 66 67 70 71 71 69 69 67 66 58 55 56 53 52 50 45 45 46 44 46 38 36 43 39 39
87 86 84 79 76 77 80 81 81 83 82 81 79 80 84 81 79 78 74 72 71 71 72 74 74 72 73 75 74 71 68 65 63 61 61 59 60 49 41 48 47 44 45 43 38 40 38
89 86 83 78 74 76 79 77 78 80 82 84 83 82 81 79 83 83 81 80 81 83 79 82 84 82 78 77 79 76 74 71 70 63 65 63 61 58 56 52 46 46 47 44 46 43 40
85 83 79 77 76 75 75 75 75 77 79 83 85 85 83 80 81 83 84 84 85 84 86 86 83 84 84 80 80 79 78 77 67 67 64 66 68 66 62 57 50 49 51 49 42 42 44
84 80 75 74 74 75 77 77 78 78 77 79 80 83 85 83 80 81 85 87 87 87 86 84 86 90 90 88 86 80 76 76 73 68 68 70 70 69 66 66 59 56 60 59 52 50 47
80 79 77 75 74 74 76 77 79 80 81 80 82 84 85 82 79 78 80 83 85 87 89 89 92 92 94 92 89 83 81 82 77 76 76 76 73 74 72 69 62 64 74 73 73 63 58
80 79 77 75 75 77 78 78 81 83 84 86 88 90 90 89 86 89 93 94 94 95 95 95 97 96 97 100 98 95 90 85 82 77 76 78 77 72 77 76 70 81 83 88 80 71 66
78 78 78 78 77 78 78 80 83 85 87 89 90 94 95 93 88 92 93 99 101 100 100 99 96 96 100 100 98 100 98 91 87 85 87 88 88 89 89 86 87 85 87 85 82 77 70
Wind_Direction
271 276 277 291 306 303 295 298 310 314 313 314 311 307 305 307 308 315 330 324 319 311 305 309 313 315 317 325 318 317 322 330 333 334 335 340 344 346 347 346 347 350 347 340 326 299 263
275 267 280 274 293 285 283 291 300 307 314 315 319 311 313 316 308 301 305 320 325 320 320 311 311 315 317 321 325 327 321 321 327 337 340 341 345 348 349 351 351 354 352 346 337 320 278
276 274 279 268 276 274 282 276 295 295 303 302 316 320 319 319 317 310 311 314 314 320 323 320 315 312 316 322 322 319 326 324 324 333 337 338 342 347 350 355 355 354 354 352 348 335 301
274 278 276 271 271 276 273 272 288 291 291 293 300 311 311 312 322 316 309 308 311 312 315 317 315 307 311 321 323 320 326 329 324 332 337 339 339 347 353 357 357 357 355 360 357 347 327
269 275 280 272 270 271 276 268 280 291 292 288 295 301 306 310 313 313 316 313 317 316 310 313 313 314 311 314 319 317 326 329 327 331 333 339 341 347 350 355 358 357 357 1 0 353 341
271 272 270 270 269 269 270 271 278 285 287 288 297 302 302 300 306 306 311 311 311 315 320 312 312 313 314 317 319 316 319 328 330 327 330 336 343 345 350 352 357 359 0 2 3 359 350
269 271 272 270 270 266 270 269 274 279 287 291 296 297 297 296 299 303 306 309 309 312 312 313 314 310 307 313 315 317 318 321 322 326 336 340 339 344 348 352 359 360 2 4 4 5 355
273 273 272 274 274 271 270 273 276 280 286 286 293 295 293 292 295 299 301 304 309 311 310 310 311 310 307 312 314 317 317 317 323 327 333 339 339 343 346 350 356 3 3 3 4 7 7
274 276 276 275 272 274 271 273 276 281 283 285 286 285 286 287 290 295 299 299 303 307 308 308 308 308 307 310 314 317 317 318 318 325 331 336 341 343 343 350 353 1 3 0 4 6 10
272 272 270 272 272 273 271 273 277 280 281 282 281 283 284 286 288 292 294 296 298 302 302 305 302 305 308 308 313 317 318 320 318 322 328 331 336 343 343 345 352 355 359 2 3 7 11
270 270 269 269 268 270 270 272 274 278 276 276 277 280 283 284 285 287 292 295 294 297 297 300 302 301 305 309 311 313 316 317 318 320 325 326 330 336 344 344 347 351 357 2 3 6 11
267 265 265 264 265 266 269 269 271 274 274 275 274 275 277 279 282 284 287 289 291 293 295 297 299 300 303 305 309 309 312 314 316 317 320 324 327 333 338 342 345 347 353 360 2 4 8
264 265 266 268 266 268 268 268 271 272 273 274 275 277 278 280 282 283 285 285 290 288 290 293 297 299 300 303 305 306 309 313 315 315 318 321 324 330 333 336 340 343 347 351 359 1 6
264 264 265 266 267 267 269 271 269 270 273 275 277 277 279 281 281 283 284 285 287 286 289 291 293 295 296 298 302 303 305 308 307 310 312 312 318 320 323 327 332 336 340 344 351 359 4
263 265 266 264 265 266 266 267 266 269 271 272 273 276 277 278 279 279 280 281 280 280 283 288 288 290 292 295 297 299 302 304 304 305 305 306 308 311 314 318 323 328 333 338 343 350 358
270 269 267 267 268 266 263 265 266 268 269 269 272 274 276 278 281 281 281 282 281 283 284 285 285 289 291 292 294 296 299 298 300 302 303 305 306 307 309 310 314 318 324 329 336 339 348
273 272 269 268 266 267 268 269 266 266 267 268 270 272 274 275 277 278 279 277 280 282 283 283 285 286 287 287 289 292 294 295 295 296 299 299 300 301 303 306 308 310 313 319 325 332 334
274 277 277 272 270 267 263 266 269 267 266 267 267 270 273 276 275 275 275 276 276 278 281 281 281 283 282 284 285 288 289 290 292 293 294 295 296 296 298 299 298 301 304 307 314 322 325
278 278 280 278 275 271 269 265 265 266 265 266 264 268 269 267 269 270 272 273 275 276 278 278 279 282 282 284 286 287 285 288 293 290 291 294 294 295 296 294 291 292 296 298 300 305 309
280 284 283 278 274 273 271 269 265 264 267 266 265 267 270 268 268 272 272 274 275 273 276 277 276 280 281 282 285 286 285 287 290 288 289 292 294 298 294 293 287 287 286 288 288 294 299
286 287 284 282 274 273 272 272 269 263 261 263 264 265 267 270 270 272 272 273 275 275 276 279 281 281 281 280 284 283 283 286 287 288 288 289 292 296 297 299 298 293 289 284 282 283 286
286 286 288 282 275 269 269 272 272 269 264 260 259 261 261 264 266 268 272 270 270 272 274 274 275 277 280 281 280 279 281 282 284 286 282 284 287 290 293 295 297 298 292 288 283 276 277
287 287 286 283 278 272 270 270 269 269 266 262 260 261 259 263 264 265 267 267 267 269 273 273 275 277 281 280 281 281 279 279 279 281 278 278 280 275 285 288 293 292 292 297 295 286 273
287 286 285 280 275 272 271 270 268 266 265 266 264 262 262 264 262 262 262 264 266 270 272 274 275 277 277 277 277 278 279 280 279 276 276 275 276 277 280 281 284 284 288 286 291 292 281
283 284 282 279 277 275 270 268 268 267 264 264 265 265 264 263 262 262 264 266 268 271 272 271 269 269 271 273 275 278 281 279 277 272 272 273 276 277 279 279 282 283 282 281 283 285 283
285 283 280 278 274 273 272 270 269 267 264 263 264 265 265 263 262 261 262 266 268 269 270 271 272 273 276 278 279 279 279 277 276 274 274 273 273 274 278 279 280 281 283 286 283 283 281
284 283 281 278 275 272 270 268 266 266 266 266 265 263 261 262 261 262 262 264 266 267 268 268 269 271 274 276 278 278 277 275 274 272 274 274 275 276 277 281 286 288 284 287 289 282 279
282 280 278 276 275 274 272 270 268 266 265 264 265 266 266 266 263 264 264 266 266 267 266 267 268 270 271 273 276 277 276 275 273 273 274 274 274 278 274 275 280 277 284 286 282 280 277
281 278 276 275 274 273 272 271 269 268 267 266 265 265 266 266 265 266 266 267 267 267 267 267 269 268 268 268 270 272 275 274 275 277 277 278 275 275 279 280 279 278 279 278 276 276 275